Stations météo

réclame
Mon MeteoGroup
Ostersund/Froson, Suède (2226): Température de l'air & dewpoint: 18.05.2019 05:00:00 - 24.05.2019 05:00:00 (CEST)Ostersund/Froson, Suède (2226): Vitesse du vent: 18.05.2019 05:00:00 - 24.05.2019 05:00:00 (CEST)Ostersund/Froson, Suède (2226): Direction du vent: 18.05.2019 05:00:00 - 24.05.2019 05:00:00 (CEST)Ostersund/Froson, Suède (2226): reduced air pressure: 18.05.2019 05:00:00 - 24.05.2019 05:00:00 (CEST)Ostersund/Froson, Suède (2226): visibility: 18.05.2019 05:00:00 - 24.05.2019 05:00:00 (CEST)
Date & Time tt [°C] td [°C] ff [km/h] ff [knt] dd ppp [hPa] vv [km]
24.05.2019 05:00:00 5,5 5,3 11 6 ESE 1008,5 1,0
24.05.2019 04:00:00 5,5 5,4 13 7 ESE 1008,7 2,2
24.05.2019 03:00:00 5,6 5,3 9 5 ESE 1009,0 10
24.05.2019 02:00:00 5,4 5,1 15 8 E 1009,3 5
24.05.2019 01:00:00 5,7 5,4 15 8 ESE 1009,7 3,1
24.05.2019 00:00:00 5,9 5,5 15 8 E 1009,8 8
23.05.2019 23:00:00 5,9 5,6 16 9 ESE 1010,2 7
23.05.2019 22:00:00 6,0 5,6 21 11 ESE 1010,4 8
23.05.2019 21:00:00 6,2 5,9 21 11 E 1010,1 5
23.05.2019 20:00:00 6,3 5,7 16 9 ESE 1010,3 10
23.05.2019 19:00:00 6,6 6,0 18 10 ESE 1010,1 10
23.05.2019 18:00:00 6,7 6,1 21 11 ESE 1010,4 9
23.05.2019 17:00:00 6,9 6,0 21 11 ESE 1010,5 10
23.05.2019 16:00:00 7,0 6,3 18 10 ESE 1010,9 5
23.05.2019 15:00:00 6,9 6,5 18 10 ESE 1011,2 2,6
23.05.2019 14:00:00 7,0 6,6 21 11 ESE 1011,5 3,3
23.05.2019 13:00:00 6,9 6,2 15 8 E 1011,7 5
23.05.2019 12:00:00 6,9 6,3 13 7 ESE 1011,8 3,8
23.05.2019 11:00:00 6,8 5,9 11 6 E 1011,9 10
23.05.2019 10:00:00 6,7 5,8 16 9 ESE 1011,9 4,3
23.05.2019 09:00:00 7,1 6,0 16 9 SE 1011,9 10
23.05.2019 08:00:00 7,1 5,7 18 10 SE 1011,9 10
23.05.2019 07:00:00 7,3 5,9 22 12 E 1011,7 10
23.05.2019 06:00:00 7,8 5,6 26 14 E 1011,4 10
23.05.2019 05:00:00 8,6 7,1 24 13 ESE 1011,4 10
23.05.2019 04:00:00 9,5 7,4 31 17 ESE 1011,2 10
23.05.2019 03:00:00 9,8 7,7 35 19 ESE 1010,6 10
23.05.2019 02:00:00 10,8 9,1 34 18 SE 1010,6 10
23.05.2019 01:00:00 11,6 9,8 29 16 SE 1010,3 10
23.05.2019 00:00:00 12,4 11,0 24 13 SE 1010,0 10
22.05.2019 23:00:00 14,3 10,7 15 8 SE 1010,0 10
22.05.2019 22:00:00 15,7 12,6 16 9 SE 1009,6 10
22.05.2019 21:00:00 16,3 12,1 15 8 ESE 1009,4 10
22.05.2019 20:00:00 17,2 11,5 15 8 ESE 1009,2 10
22.05.2019 19:00:00 18,8 10,6 4 2 - 1009,3 10
22.05.2019 18:00:00 18,9 10,7 8 4 WSW 1009,4 10
22.05.2019 17:00:00 19,9 10,3 8 4 SW 1009,6 10
22.05.2019 16:00:00 19,9 10,3 8 4 SSW 1009,9 10
22.05.2019 15:00:00 19,8 10,2 8 4 SSE 1010,3 10
22.05.2019 14:00:00 20,0 10,7 15 8 ESE 1010,6 10
22.05.2019 13:00:00 19,6 11,4 18 10 ESE 1011,0 10
22.05.2019 12:00:00 19,0 10,8 18 10 ESE 1011,5 10
22.05.2019 11:00:00 18,3 9,9 18 10 ESE 1012,0 10
22.05.2019 10:00:00 17,2 10,3 15 8 SE 1012,3 10
22.05.2019 09:00:00 15,9 10,2 16 9 ESE 1012,5 10
22.05.2019 08:00:00 13,1 9,9 18 10 ESE 1013,1 10
22.05.2019 07:00:00 12,2 9,4 16 9 SE 1013,3 10
22.05.2019 06:00:00 12,5 9,5 13 7 ESE 1013,2 10
22.05.2019 05:00:00 12,9 9,2 18 10 SSE 1013,1 10
22.05.2019 04:00:00 12,4 9,4 18 10 SE 1013,4 10
22.05.2019 03:00:00 13,1 9,4 22 12 SE 1013,1 10
22.05.2019 02:00:00 13,5 9,5 16 9 ESE 1013,2 10
22.05.2019 01:00:00 15,3 9,6 18 10 SE 1013,0 10
22.05.2019 00:00:00 16,1 10,4 11 6 SE 1012,7 10
21.05.2019 23:00:00 16,4 9,6 11 6 E 1012,6 10
21.05.2019 22:00:00 18,9 9,4 9 5 E 1012,2 10
21.05.2019 21:00:00 19,6 9,5 9 5 ENE 1011,9 10
21.05.2019 20:00:00 20,7 9,3 8 4 ENE 1011,6 10
21.05.2019 19:00:00 21,0 9,3 11 6 NE 1011,4 10
21.05.2019 18:00:00 21,2 9,1 8 4 NNE 1011,4 10
21.05.2019 17:00:00 22,0 8,1 4 2 N 1011,6 10
21.05.2019 16:00:00 21,6 8,5 8 4 WNW 1011,9 10
21.05.2019 15:00:00 21,0 10,2 9 5 W 1012,4 10
21.05.2019 14:00:00 21,2 8,1 4 2 ESE 1012,6 10
21.05.2019 13:00:00 19,7 9,6 8 4 WNW 1013,1 10
21.05.2019 12:00:00 16,7 9,9 8 4 W 1014,0 10
21.05.2019 11:00:00 16,5 10,1 9 5 W 1014,1 10
21.05.2019 10:00:00 15,4 10,0 4 2 - 1014,2 10
21.05.2019 09:00:00 13,1 9,5 2 1 - 1014,6 10
21.05.2019 08:00:00 12,2 8,9 4 2 - 1014,8 10
21.05.2019 07:00:00 11,8 8,8 5 3 NE 1014,8 10
21.05.2019 06:00:00 11,3 8,9 8 4 NE 1014,7 10
21.05.2019 05:00:00 10,0 8,4 8 4 NNE 1014,8 10
21.05.2019 04:00:00 10,6 8,2 4 2 NE 1014,8 10
21.05.2019 03:00:00 11,6 8,3 8 4 ENE 1014,5 10
21.05.2019 02:00:00 12,3 8,6 8 4 NE 1014,3 10
21.05.2019 01:00:00 13,2 8,9 8 4 NE 1014,2 10
21.05.2019 00:00:00 13,6 8,9 5 3 ENE 1014,2 10
20.05.2019 23:00:00 14,4 9,0 5 3 ENE 1013,9 10
20.05.2019 22:00:00 15,5 8,7 5 3 NNE 1013,5 10
20.05.2019 21:00:00 16,9 8,3 5 3 NNE 1013,1 10
20.05.2019 20:00:00 17,5 8,1 5 3 NNE 1013,0 10
20.05.2019 19:00:00 17,5 8,1 8 4 N 1013,1 10
20.05.2019 18:00:00 17,1 8,3 8 4 NW 1013,3 10
20.05.2019 17:00:00 16,7 8,6 9 5 NW 1013,5 10
20.05.2019 16:00:00 16,7 9,1 9 5 WNW 1013,7 10
20.05.2019 15:00:00 16,5 8,7 15 8 WNW 1013,8 10
20.05.2019 14:00:00 17,0 8,9 4 2 WNW 1013,8 10
20.05.2019 13:00:00 16,5 9,4 13 7 NW 1013,9 10
20.05.2019 12:00:00 15,4 9,3 15 8 NNW 1014,2 10
20.05.2019 11:00:00 14,0 9,0 11 6 WNW 1014,5 10
20.05.2019 10:00:00 12,3 7,8 9 5 WNW 1014,6 10
20.05.2019 09:00:00 11,8 8,5 4 2 - 1014,6 10
20.05.2019 08:00:00 9,9 7,7 0 0 N 1014,8 10
20.05.2019 07:00:00 8,4 7,6 5 3 - 1015,0 10
20.05.2019 06:00:00 8,3 7,7 8 4 SSW 1014,7 10
20.05.2019 05:00:00 7,8 7,7 15 8 SW 1014,8 2,0
20.05.2019 04:00:00 8,2 7,8 13 7 SW 1014,6 10
20.05.2019 03:00:00 9,3 8,5 15 8 SSW 1014,3 10
20.05.2019 02:00:00 10,4 9,6 11 6 S 1014,1 10
20.05.2019 01:00:00 10,9 9,7 11 6 SSE 1014,1 10
20.05.2019 00:00:00 10,9 10,1 9 5 S 1014,0 10
19.05.2019 23:00:00 10,9 10,1 11 6 S 1014,1 10
19.05.2019 22:00:00 10,6 10,1 8 4 SSE 1014,2 10
19.05.2019 21:00:00 10,3 9,8 5 3 SSW 1014,0 3,7
19.05.2019 20:00:00 11,4 10,1 9 5 SE 1013,8 10
19.05.2019 19:00:00 11,7 10,3 8 4 SE 1013,8 10
19.05.2019 18:00:00 11,3 10,0 8 4 E 1014,2 10
19.05.2019 17:00:00 10,9 9,7 8 4 ENE 1014,7 10
19.05.2019 16:00:00 11,4 8,6 9 5 E 1015,0 10
19.05.2019 15:00:00 11,2 8,9 8 4 E 1015,2 10
19.05.2019 14:00:00 11,4 7,7 11 6 ENE 1015,8 10
19.05.2019 13:00:00 11,6 8,6 4 2 - 1016,0 10
19.05.2019 12:00:00 12,8 6,6 8 4 ENE 1016,0 10
19.05.2019 11:00:00 11,4 6,9 9 5 NNE 1015,9 10
19.05.2019 10:00:00 10,7 6,3 9 5 ESE 1016,5 10
19.05.2019 09:00:00 11,5 4,7 11 6 SSE 1016,8 10
19.05.2019 08:00:00 11,3 3,6 9 5 ESE 1016,6 10
19.05.2019 07:00:00 10,7 3,9 8 4 SE 1016,5 10
19.05.2019 06:00:00 10,3 3,3 11 6 ESE 1016,9 10
19.05.2019 05:00:00 11,8 1,7 8 4 SSE 1016,8 10
19.05.2019 04:00:00 11,9 1,5 13 7 S 1017,0 10
19.05.2019 03:00:00 11,7 1,3 9 5 SSE 1017,2 10
19.05.2019 02:00:00 12,1 0,8 9 5 SSE 1017,4 10
19.05.2019 01:00:00 12,8 0,5 8 4 SSE 1017,6 10
19.05.2019 00:00:00 13,6 0,6 9 5 SSE 1017,5 10
18.05.2019 23:00:00 14,5 1,1 15 8 S 1017,5 10
18.05.2019 22:00:00 15,0 2,2 11 6 SSE 1017,3 10
18.05.2019 21:00:00 16,6 3,6 9 5 SSE 1016,9 10
18.05.2019 20:00:00 17,7 3,2 0 0 N 1016,8 10
18.05.2019 19:00:00 17,6 2,3 8 4 SSW 1017,2 10
18.05.2019 18:00:00 17,0 3,3 11 6 SSW 1017,9 10
18.05.2019 17:00:00 17,9 3,0 11 6 SSW 1017,9 10
18.05.2019 16:00:00 18,6 4,0 15 8 SSW 1018,2 10
18.05.2019 15:00:00 18,8 3,0 13 7 S 1018,5 10
18.05.2019 14:00:00 18,9 3,1 15 8 SE 1019,0 10
18.05.2019 13:00:00 18,2 3,6 16 9 ESE 1019,7 10
18.05.2019 12:00:00 16,8 3,5 15 8 SE 1020,5 10
18.05.2019 11:00:00 15,7 3,2 11 6 SSE 1021,1 10
18.05.2019 10:00:00 14,4 1,6 15 8 SSE 1021,4 10
18.05.2019 09:00:00 12,7 1,7 15 8 S 1022,1 10
18.05.2019 08:00:00 11,7 2,4 13 7 SSE 1022,3 10
18.05.2019 07:00:00 10,7 3,2 11 6 SSE 1022,5 10
18.05.2019 06:00:00 10,0 3,3 15 8 SSE 1022,9 10
18.05.2019 05:00:00 9,7 3,7 15 8 SE 1023,2 10

tt = Température de l'air
td = dewpoint
ff = Vitesse du vent
dd = Direction du vent
ppp = reduced air pressure
vv = visibility

stations d'obs. à proximité